Simultaneous Nadir Overpasses (SNOs) Predictions

Prediction of SNOs between AQUA and METOP-C Satellite Orbit:

Table of predicted SNOs for the next 14.0 days since TLE Epoch: 12/17/2022
Index Date (AQUA) Time (AQUA) Lat,Lon (AQUA) SZA (AQUA ) Date (METOP-C) Time (METOP-C) Lat,Lon (METOP-C) SZA (METOP-C ) Distance(km) Time Diff (sec)
1 12/17/2022 04:32:51 73.66, 107.97 96.94 12/17/2022 04:31:43 73.61, 105.89 96.93 65.51 68
2 12/17/2022 05:22:25 -74.13, -85.43 82.58 12/17/2022 05:22:13 -74.14, -85.49 82.56 2.06 12
3 12/17/2022 06:11:53 74.21, 82.02 97.51 12/17/2022 06:12:52 74.23, 82.06 97.53 2.47 59
4 12/19/2022 23:16:32 -73.69, 7.02 82.96 12/19/2022 23:15:24 -73.64, 5.05 82.96 61.87 68
5 12/20/2022 00:06:07 74.14, 173.65 97.51 12/20/2022 00:05:55 74.13, 173.55 97.51 3.22 12
6 12/20/2022 00:55:34 -74.24, -18.94 82.39 12/20/2022 00:56:34 -74.21, -18.91 82.42 3.11 60
7 12/22/2022 18:00:13 73.74, -93.99 97.12 12/22/2022 17:59:04 73.67, -95.81 97.09 57.20 69
8 12/22/2022 18:49:46 -74.15, 72.73 82.46 12/22/2022 18:49:35 -74.15, 72.69 82.46 1.28 11
9 12/22/2022 19:39:14 74.24,-119.84 97.64 12/22/2022 19:40:14 74.24,-119.75 97.63 2.77 60
10 12/25/2022 12:43:54 -73.85, 164.89 82.82 12/25/2022 12:42:43 -73.78, 163.55 82.85 42.16 71
11 12/25/2022 13:33:26 74.15, -28.16 97.50 12/25/2022 13:33:16 74.17, -28.18 97.52 2.71 10
12 12/25/2022 14:22:53 -74.24, 139.27 82.41 12/25/2022 14:23:55 -74.25, 139.36 82.41 3.27 62
13 12/28/2022 07:27:34 73.89, 63.90 97.12 12/28/2022 07:26:23 73.84, 62.78 97.11 35.15 71
14 12/28/2022 08:17:05 -74.18,-129.13 82.57 12/28/2022 08:16:57 -74.18,-129.08 82.58 1.85 8
15 12/28/2022 09:06:32 74.23, 38.40 97.48 12/28/2022 09:07:37 74.22, 38.36 97.46 1.80 65
16 12/31/2022 02:11:13 -74.02, -37.27 82.91 12/31/2022 02:10:01 -73.95, -37.90 82.96 20.64 72
17 12/31/2022 03:00:42 74.17, 130.02 97.25 12/31/2022 03:00:37 74.18, 130.02 97.27 1.52 5



Historial Predications of SNOs between AQUA and METOP-C
